Погода в Зеленнике

Россия / Архангельская область     62°20′42″N   44°40′50″E
темп.,
°C
ветер,
м/с
пор.,
м/с
влажн.,
%
обл.,
%
осадки,
мм/ч
давл.,
гПа
погр.,
м
3 августа, вт
вт300:00+15вюв2690100 0.0 1007116
03:00+14вюв3109241 0.0 1005228
06:00+18вюв51378100 0.0 1003434
09:00+19юв51391100 1.0 1000610
12:00+24ю61164100 0.0 10001346
15:00+23юз61167100 0.7 10011506
18:00+19зюз5116959 0.0 10031075
21:00+15ююв23842 0.0 100556
4 августа, ср
ср400:00+13ююв39932 0.0 1006186
03:00+13ю28910 0.0 1006177
06:00+15ююз311740 0.0 1006401
09:00+20юз58560 0.0 10071223
12:00+21зюз584899 0.0 10081864
15:00+19з4754100 0.0 10101697
18:00+18зсз485126 0.0 10111189
21:00+13зюз2667100 0.0 101194
5 августа, чт
чт500:00+11з2275100 0.0 101344
03:00+8сз26861 0.0 1015116
06:00+10зсз38760 0.0 1017428
09:00+15сз475219 0.0 10181386
12:00+18зсз473922 0.0 10172072
15:00+20сз463542 0.0 10172467
18:00+17сз3648100 0.0 1018445
21:00+12ссз22675 0.0 101920
6 августа, пт
пт600:00+11всв1170100 0.0 102033
03:00+11всв117658 0.0 102126
06:00+11всв237438 0.0 1021169
09:00+17всв125129 0.0 10211080
12:00+19ссз2241100 0.0 10202218
15:00+16св3448100 0.0 1020849
18:00+15св1157100 0.0 102018
21:00+11с116827 0.0 102112
7 августа, сб
сб700:00+10ссв117032 0.0 102015
03:00+9св11765 0.0 102110
06:00+11ссв00665 0.0 102271
09:00+18сз11463 0.0 1021756
12:00+21ссз12383 0.0 10201872
15:00+22ссз123534 0.0 10192361
18:00+20св1345100 0.0 1019156
21:00+15в2360100 0.0 102058